[[{"header":{"parameterUnit":"m.s-1","parameterCategory":2,"la1":30.2992,"la2":30.254,"lo1":-89.0895,"lo2":-89.0443,"dy":0.0025,"dx":0.0025,"nx":19,"ny":19,"refTime":"2026-04-03T09:00:00:Z","depth":"0","parameterNumber":2,"parameterNumberName":"U-component_of_CURRENTS"},"data":[0,0,0,0.1738,0.1741,0.1862,0.1863,0.1971,0.1972,0,0,0,0,0,0,0,0,0,0,0,0.1688,0.1689,0.1737,0.1741,0.1862,0.1863,0.1971,0.1972,0,0,0,0,0,0,0,0,0,0,0,0.1687,0.1689,0.169,0.1741,0.1862,0.1863,0.197,0.1887,0,0,0,0,0,0,0,0,0,0,0.1774,0.1731,0.1688,0.169,0.1742,0.1862,0.1863,0.1884,0.1892,0.1907,0,0.1934,0,0.1965,0.1979,0.198,0,0,0,0.1728,0.1724,0.177,0.169,0.1743,0.1862,0.1804,0.1889,0.1899,0.1918,0.1936,0.1941,0.1967,0.198,0.1981,0.2128,0.2128,0,0,0.1721,0.1696,0.1763,0.1776,0.1787,0.18,0.1808,0.1895,0.1902,0.1937,0.1944,0.1969,0.1981,0.1982,0.2127,0.2128,0,0,0,0.1711,0.1691,0.1735,0.1771,0.1803,0.1804,0.1813,0.1898,0.1916,0.1945,0.197,0.1981,0.1983,0.2126,0.2127,0.2138,0,0,0,0.1706,0.1687,0.1732,0.1716,0.1802,0.1857,0.1813,0.191,0.1921,0.197,0.1981,0.1984,0.2125,0.2127,0.2136,0.2126,0,0,0,0.168,0.1684,0.1704,0.1715,0.1776,0.1857,0.188,0.1913,0.1937,0.198,0.1984,0.2125,0.2126,0.2134,0.2123,0.2149,0,0,0,0.1641,0.1682,0.1703,0.1768,0.1775,0.1885,0.1879,0.1948,0.1987,0.1982,0.2125,0.2127,0.2133,0.2122,0.2148,0.1934,0.1924,0,0,0.1671,0.1684,0.1727,0.1751,0.1855,0.1866,0.1964,0.2001,0.202,0.2088,0.2093,0.2136,0.2123,0.2149,0.2042,0.2028,0,0,0,0.1724,0.1752,0.179,0.1857,0.1932,0.198,0.2032,0.2061,0.2119,0.2057,0.2172,0.2163,0.2179,0.2048,0.2038,0.1884,0.2136,0.2135,0.2135,0.1703,0.1769,0.184,0.1924,0.1986,0.2068,0.2108,0.2155,0.2173,0.2205,0.2199,0.226,0.2122,0.2112,0.1957,0.2237,0.2237,0.2238,0.2238,0.1745,0.178,0.1862,0.1948,0.2012,0.2084,0.2179,0.2196,0.2267,0.2261,0.2276,0.2098,0.2101,0.194,0.2239,0.2239,0.2238,0.2238,0.2238,0.1715,0.1736,0.1802,0.1906,0.1981,0.207,0.2132,0.2199,0.2265,0.2284,0.2149,0.2145,0.1978,0.2297,0.2297,0.2297,0.2297,0.2298,0.2298,0.1636,0.1706,0.1758,0.1861,0.1911,0.1987,0.2103,0.2143,0.2144,0.2141,0.2139,0.1968,0.2278,0.2247,0.2299,0.2299,0.2299,0.2298,0.2298,0.1599,0.162,0.1691,0.1746,0.1856,0.1834,0.198,0.1938,0.1998,0.194,0.1766,0.2065,0.2038,0.2043,0.2007,0.1995,0.1995,0.1995,0.1995,0.1544,0.157,0.1631,0.1686,0.1746,0.1766,0.1642,0.1627,0.1567,0.1485,0.156,0.1468,0.1488,0.1426,0.1445,0.1397,0.1231,0.123,0.1229,0.1522,0.1547,0.1555,0.1616,0.1679,0.1633,0.1397,0.1196,0.1125,0.1193,0.1394,0.1427,0.1294,0.1337,0.1243,0.1282,0.1206,0,0]},{"header":{"parameterUnit":"m.s-1","parameterCategory":2,"la1":30.2992,"la2":30.254,"lo1":-89.0895,"lo2":-89.0443,"dy":0.0025,"dx":0.0025,"nx":19,"ny":19,"refTime":"2026-04-03T09:00:00:Z","depth":"0","parameterNumber":3,"parameterNumberName":"V-component_of_CURRENTS"},"data":[0,0,0,0.0042,0.0041,-0.0018,-0.0018,-0.0076,-0.0076,0,0,0,0,0,0,0,0,0,0,0,0.0066,0.0065,0.0042,0.0041,-0.0018,-0.0018,-0.0076,-0.0076,0,0,0,0,0,0,0,0,0,0,0,0.0066,0.0065,0.0065,0.0041,-0.0018,-0.0018,-0.0076,-0.0037,0,0,0,0,0,0,0,0,0,0,0.0017,0.0043,0.0066,0.0065,0.004,-0.0018,-0.0018,-0.0036,-0.004,-0.0042,0,-0.0046,0,-0.0061,-0.0079,-0.0079,0,0,0,0.0035,0.0046,0.0027,0.0065,0.004,-0.0018,0.0007,-0.0038,-0.0042,-0.0047,-0.0047,-0.0049,-0.0062,-0.0079,-0.008,-0.0051,-0.005,0,0,0.0038,0.0056,0.003,0.0024,0.0032,0.0009,0.0005,-0.0041,-0.004,-0.0047,-0.0051,-0.0063,-0.008,-0.008,-0.0051,-0.0051,0,0,0,0.0051,0.0059,0.004,0.0027,0.0016,0.0007,0.0003,-0.0038,-0.0045,-0.0052,-0.0063,-0.008,-0.008,-0.0052,-0.0051,0.0042,0,0,0,0.0053,0.0067,0.0042,0.0052,0.0017,-0.0013,0.0007,-0.0042,-0.0048,-0.0063,-0.008,-0.0081,-0.0053,-0.0051,0.0038,0.0093,0,0,0,0.0067,0.0068,0.0063,0.0053,0.0029,-0.0013,-0.0023,-0.0044,-0.0054,-0.0079,-0.0081,-0.0053,-0.0052,0.0035,0.0086,0.0185,0,0,0,0.0085,0.009,0.0063,0.0067,0.003,0.002,-0.0023,-0.0043,-0.0061,-0.008,-0.0053,-0.0051,0.0034,0.0082,0.018,0.0216,0.0242,0,0,0.0102,0.0093,0.0095,0.0069,0.0075,0.0028,0.0052,0.0002,-0.0036,-0.0039,-0.0039,0.004,0.0086,0.0184,0.0304,0.0327,0,0,0,0.0107,0.0115,0.011,0.0106,0.0085,0.0102,0.005,0.0049,0.0048,-0.0038,0.0044,0.0071,0.013,0.0141,0.016,0.0125,-0.0044,-0.0044,-0.0044,0.0164,0.015,0.017,0.0161,0.016,0.0149,0.0173,0.0166,0.0103,0.0128,0.015,0.0293,0.0305,0.032,0.0282,0.0145,0.0146,0.0146,0.0146,0.0214,0.0232,0.0229,0.024,0.0252,0.0269,0.0294,0.0277,0.0341,0.0255,0.0307,0.0242,0.0346,0.0299,0.0152,0.0151,0.0151,0.015,0.015,0.0262,0.0271,0.0276,0.0308,0.0348,0.0348,0.045,0.0442,0.0435,0.0488,0.0501,0.0499,0.0457,0.0512,0.0512,0.0513,0.0514,0.0514,0.0515,0.0306,0.0317,0.0355,0.0379,0.0413,0.0472,0.0545,0.061,0.0652,0.0625,0.0625,0.0509,0.0405,0.0391,0.0525,0.0523,0.0522,0.0521,0.052,0.036,0.0367,0.0429,0.0468,0.0555,0.0654,0.0712,0.0834,0.0891,0.0924,0.0746,0.0704,0.0687,0.067,0.0662,0.0859,0.0859,0.0859,0.0859,0.0404,0.0408,0.0508,0.0588,0.069,0.0749,0.0922,0.098,0.0953,0.0906,0.0866,0.0768,0.0756,0.0735,0.0716,0.0705,0.091,0.091,0.091,0.0449,0.0474,0.0557,0.0629,0.0745,0.0861,0.0977,0.1,0.0941,0.0905,0.0818,0.0816,0.0658,0.0642,0.0588,0.0565,0.0539,0,0]}],[{"header":{"parameterUnit":"m.s-1","parameterCategory":2,"la1":30.2992,"la2":30.254,"lo1":-89.0895,"lo2":-89.0443,"dy":0.0025,"dx":0.0025,"nx":19,"ny":19,"refTime":"2026-04-03T09:00:00:Z","depth":"2","parameterNumber":2,"parameterNumberName":"U-component_of_CURRENTS"},"data":[0,0,0,0.1526,0.1527,0.1562,0.1562,0.1651,0.1652,0,0,0,0,0,0,0,0,0,0,0,0.1522,0.1522,0.1526,0.1527,0.1562,0.1562,0.1651,0.1652,0,0,0,0,0,0,0,0,0,0,0,0.1521,0.1522,0.1523,0.1527,0.1562,0.1562,0.165,0.1613,0,0,0,0,0,0,0,0,0,0,0.1574,0.1557,0.1522,0.1523,0.1528,0.1562,0.1562,0.1611,0.1615,0.1648,0,0.166,0,0.1657,0.1659,0.1659,0,0,0,0.1527,0.1553,0.1568,0.1523,0.1528,0.1562,0.1546,0.1613,0.1618,0.1655,0.1661,0.1664,0.1659,0.1659,0.166,0.1785,0.1786,0,0,0.1525,0.1522,0.1565,0.1572,0.1547,0.1545,0.1547,0.1616,0.1623,0.1662,0.1666,0.166,0.166,0.1661,0.1785,0.1785,0,0,0,0.152,0.1521,0.1534,0.1569,0.1571,0.1546,0.1548,0.162,0.1627,0.1667,0.1661,0.1661,0.1662,0.1784,0.1785,0.1829,0,0,0,0.1518,0.1518,0.1533,0.1531,0.157,0.1588,0.1551,0.1622,0.1629,0.1661,0.1661,0.1663,0.1783,0.1785,0.1826,0.1803,0,0,0,0.1518,0.1517,0.1526,0.1531,0.1545,0.1587,0.1596,0.1623,0.1626,0.1659,0.1663,0.1783,0.1784,0.1824,0.18,0.1821,0,0,0,0.1508,0.1525,0.1526,0.154,0.1545,0.1584,0.1595,0.1644,0.1677,0.1661,0.1784,0.1785,0.1823,0.1799,0.1819,0.1633,0.1625,0,0,0.1522,0.1527,0.1533,0.1535,0.1567,0.1578,0.1635,0.1692,0.1707,0.1762,0.1765,0.1827,0.18,0.1821,0.1713,0.1702,0,0,0,0.1532,0.1543,0.1551,0.1569,0.1594,0.1633,0.1685,0.1722,0.1795,0.1732,0.1843,0.1824,0.1836,0.1721,0.1713,0.1791,0.1791,0.1791,0.1791,0.1541,0.1553,0.1568,0.1594,0.163,0.1696,0.174,0.1803,0.1829,0.1879,0.1874,0.1931,0.1812,0.1803,0.1912,0.1912,0.1913,0.1913,0.1913,0.1547,0.1544,0.158,0.1608,0.1658,0.1718,0.1811,0.1855,0.1928,0.1931,0.1942,0.1789,0.1796,0.1917,0.1916,0.1915,0.1915,0.1915,0.1914,0.1527,0.1528,0.1553,0.1595,0.166,0.1736,0.1797,0.1885,0.1941,0.1965,0.184,0.1836,0.1928,0.1987,0.1987,0.1987,0.1987,0.1987,0.1987,0.1488,0.151,0.1533,0.1588,0.1614,0.1686,0.1795,0.183,0.1843,0.184,0.1839,0.1955,0.1953,0.1932,0.1987,0.1987,0.1987,0.1987,0.1987,0.1456,0.1478,0.1489,0.1514,0.1572,0.1534,0.1661,0.1641,0.17,0.1655,0.1769,0.1775,0.1731,0.1734,0.1708,0.1702,0.1702,0.1702,0.1702,0.143,0.1444,0.1445,0.1461,0.1464,0.1476,0.1342,0.1339,0.1428,0.1449,0.1461,0.1407,0.1423,0.136,0.1372,0.1338,0.1236,0.1235,0.1235,0.141,0.1411,0.1392,0.1418,0.1411,0.134,0.1132,0.0987,0.1043,0.1223,0.1442,0.1658,0.1607,0.1621,0.1547,0.1559,0.1512,0,0]},{"header":{"parameterUnit":"m.s-1","parameterCategory":2,"la1":30.2992,"la2":30.254,"lo1":-89.0895,"lo2":-89.0443,"dy":0.0025,"dx":0.0025,"nx":19,"ny":19,"refTime":"2026-04-03T09:00:00:Z","depth":"2","parameterNumber":3,"parameterNumberName":"V-component_of_CURRENTS"},"data":[0,0,0,0.0127,0.0128,0.0155,0.0155,0.0194,0.0194,0,0,0,0,0,0,0,0,0,0,0,0.0113,0.0113,0.0127,0.0128,0.0155,0.0155,0.0194,0.0194,0,0,0,0,0,0,0,0,0,0,0,0.0113,0.0113,0.0113,0.0128,0.0155,0.0155,0.0194,0.0172,0,0,0,0,0,0,0,0,0,0,0.0145,0.0138,0.0113,0.0113,0.0128,0.0155,0.0155,0.0171,0.0173,0.0184,0,0.0186,0,0.0195,0.0197,0.0197,0,0,0,0.0126,0.0136,0.0139,0.0113,0.0129,0.0155,0.0142,0.0172,0.0175,0.0187,0.0186,0.0188,0.0195,0.0198,0.0198,0.0268,0.0268,0,0,0.0125,0.0124,0.0137,0.014,0.0133,0.0142,0.0143,0.0174,0.0179,0.0187,0.0189,0.0196,0.0198,0.0198,0.0267,0.0268,0,0,0,0.0122,0.0123,0.0125,0.0138,0.0145,0.0142,0.0144,0.0177,0.0177,0.019,0.0196,0.0198,0.0199,0.0267,0.0268,0.0302,0,0,0,0.0121,0.0121,0.0124,0.0124,0.0144,0.0163,0.0147,0.0174,0.0178,0.0196,0.0198,0.0199,0.0266,0.0267,0.03,0.0342,0,0,0,0.0112,0.012,0.0121,0.0124,0.0136,0.0162,0.0164,0.0175,0.0183,0.0198,0.0199,0.0266,0.0267,0.0298,0.0338,0.0371,0,0,0,0.0113,0.0127,0.0121,0.0151,0.0136,0.0187,0.0163,0.0192,0.0207,0.0198,0.0266,0.0268,0.0298,0.0336,0.0369,0.0368,0.0379,0,0,0.0133,0.0129,0.0151,0.0147,0.0198,0.0183,0.0244,0.024,0.0227,0.0255,0.0257,0.0301,0.0338,0.0371,0.0429,0.0438,0,0,0,0.016,0.0172,0.019,0.0217,0.0245,0.0278,0.0276,0.0278,0.0289,0.0241,0.0313,0.0336,0.0355,0.0349,0.0357,0.0273,0.0272,0.0272,0.0272,0.0187,0.0206,0.0252,0.028,0.0311,0.0343,0.0367,0.0369,0.0341,0.0346,0.0371,0.0435,0.0429,0.0435,0.0366,0.0366,0.0366,0.0366,0.0366,0.0236,0.027,0.0297,0.0342,0.0376,0.0422,0.0456,0.0438,0.0468,0.0425,0.044,0.0396,0.0446,0.0369,0.0369,0.0368,0.0368,0.0368,0.0368,0.0264,0.0282,0.0305,0.0371,0.0432,0.0471,0.0546,0.0542,0.0518,0.0537,0.0519,0.0518,0.0462,0.0533,0.0533,0.0533,0.0534,0.0534,0.0534,0.028,0.0307,0.0349,0.0407,0.0457,0.0531,0.0598,0.0625,0.0618,0.0585,0.0584,0.0492,0.0486,0.0473,0.0539,0.0538,0.0538,0.0537,0.0537,0.0322,0.0325,0.039,0.0436,0.0547,0.0626,0.0679,0.0719,0.0728,0.072,0.0607,0.0604,0.0598,0.0591,0.058,0.0671,0.0671,0.0671,0.0671,0.0348,0.0354,0.0438,0.0514,0.0616,0.0677,0.0755,0.076,0.0723,0.068,0.0679,0.0629,0.0623,0.0615,0.0608,0.0596,0.0691,0.0691,0.0691,0.0386,0.0402,0.0466,0.053,0.0646,0.0727,0.0762,0.0723,0.0667,0.0691,0.0676,0.0674,0.0594,0.0588,0.0569,0.0559,0.0537,0,0]}],[{"header":{"parameterUnit":"m.s-1","parameterCategory":2,"la1":30.2992,"la2":30.254,"lo1":-89.0895,"lo2":-89.0443,"dy":0.0025,"dx":0.0025,"nx":19,"ny":19,"refTime":"2026-04-03T09:00:00:Z","depth":"4","parameterNumber":2,"parameterNumberName":"U-component_of_CURRENTS"},"data":[0,0,0,0.0856,0.0856,0.0864,0.0864,0.0941,0.0942,0,0,0,0,0,0,0,0,0,0,0,0.0864,0.0864,0.0856,0.0856,0.0864,0.0864,0.0941,0.0942,0,0,0,0,0,0,0,0,0,0,0,0.0864,0.0864,0.0864,0.0856,0.0864,0.0864,0.0941,0.0921,0,0,0,0,0,0,0,0,0,0,0.0906,0.0918,0.0864,0.0864,0.0856,0.0864,0.0864,0.092,0.0923,0.0953,0,0.0953,0,0.0941,0.0948,0.0948,0,0,0,0.0868,0.0915,0.0896,0.0864,0.0856,0.0864,0.0864,0.0921,0.0924,0.0957,0.0954,0.0956,0.0942,0.0948,0.0949,0.1024,0.1024,0,0,0.0868,0.0889,0.0893,0.0898,0.0857,0.0863,0.0864,0.0922,0.094,0.0954,0.0957,0.0944,0.0949,0.095,0.1024,0.1024,0,0,0,0.0858,0.0889,0.0868,0.0895,0.0887,0.0863,0.0864,0.0938,0.0925,0.0958,0.0945,0.0949,0.095,0.1023,0.1024,0.103,0,0,0,0.0858,0.0882,0.0868,0.0884,0.0885,0.0907,0.0879,0.0921,0.0926,0.0944,0.0949,0.0951,0.1023,0.1024,0.103,0.1041,0,0,0,0.0864,0.0883,0.0878,0.0884,0.0878,0.0905,0.0896,0.0922,0.0918,0.0948,0.0951,0.1023,0.1024,0.1029,0.104,0.1073,0,0,0,0.0893,0.0878,0.088,0.0864,0.0878,0.0868,0.0896,0.0915,0.094,0.095,0.1023,0.1024,0.1029,0.1039,0.1072,0.0927,0,0,0,0.088,0.0878,0.0863,0.0862,0.0841,0.0868,0.0885,0.0934,0.0959,0.1011,0.1012,0.103,0.104,0.1073,0.0955,0,0,0,0,0.0861,0.0852,0.0846,0.0839,0.0837,0.0871,0.0907,0.0937,0.0996,0.0972,0.1038,0.1044,0.1064,0.0976,0.1026,0.1026,0.1026,0.1026,0.1026,0.089,0.0862,0.0842,0.0822,0.0838,0.0883,0.0922,0.0976,0.0997,0.1029,0.1054,0.1092,0.0998,0.1056,0.1056,0.1056,0.1056,0.1056,0.1056,0.0854,0.0828,0.0835,0.0808,0.0849,0.0888,0.0961,0.0996,0.1072,0.1071,0.1091,0.0995,0.1057,0.1057,0.1057,0.1057,0.1057,0.1057,0.1057,0.0852,0.0831,0.0824,0.0808,0.085,0.0905,0.0961,0.1028,0.109,0.1114,0.1041,0.111,0.1104,0.1134,0.1134,0.1134,0.1134,0.1135,0.1135,0.0846,0.0827,0.081,0.0806,0.0823,0.0876,0.0973,0.1014,0.1084,0.1045,0.1131,0.1119,0.1116,0.111,0.1138,0.1137,0.1137,0.1136,0.1136,0.0805,0.0813,0.0772,0.0773,0.0782,0.0802,0.091,0.0955,0.0996,0.0993,0.1009,0.1014,0.1005,0.1006,0.0996,0.0991,0.0989,0.0987,0,0.0794,0.0787,0.0729,0.07,0.0693,0.0743,0.0761,0.0822,0.0891,0.0863,0.1,0.1016,0.1019,0.1007,0.1005,0.099,0,0,0,0.0769,0.0749,0.0701,0.0656,0.0633,0.0666,0.0756,0.0751,0.0881,0.0867,0.0943,0.0955,0.1043,0.1147,0.1147,0.1144,0.1134,0,0]},{"header":{"parameterUnit":"m.s-1","parameterCategory":2,"la1":30.2992,"la2":30.254,"lo1":-89.0895,"lo2":-89.0443,"dy":0.0025,"dx":0.0025,"nx":19,"ny":19,"refTime":"2026-04-03T09:00:00:Z","depth":"4","parameterNumber":3,"parameterNumberName":"V-component_of_CURRENTS"},"data":[0,0,0,0.0215,0.0216,0.0293,0.0293,0.0359,0.036,0,0,0,0,0,0,0,0,0,0,0,0.0185,0.0186,0.0214,0.0216,0.0293,0.0293,0.0359,0.036,0,0,0,0,0,0,0,0,0,0,0,0.0185,0.0186,0.0186,0.0217,0.0293,0.0293,0.0359,0.0309,0,0,0,0,0,0,0,0,0,0,0.0239,0.0217,0.0185,0.0186,0.0217,0.0292,0.0293,0.0307,0.0312,0.0315,0,0.0327,0,0.0346,0.0363,0.0364,0,0,0,0.0217,0.0213,0.0233,0.0186,0.0218,0.0292,0.0258,0.031,0.0316,0.0322,0.0329,0.0331,0.0347,0.0364,0.0364,0.0431,0.0431,0,0,0.0213,0.02,0.0229,0.0237,0.0238,0.0256,0.0261,0.0314,0.032,0.0329,0.0333,0.0348,0.0364,0.0364,0.043,0.0431,0,0,0,0.02,0.0197,0.0216,0.0234,0.0251,0.0258,0.0264,0.0317,0.0324,0.0334,0.0349,0.0364,0.0365,0.043,0.043,0.0446,0,0,0,0.0198,0.019,0.0214,0.0208,0.025,0.029,0.0265,0.032,0.0327,0.0348,0.0364,0.0366,0.043,0.043,0.0444,0.0454,0,0,0,0.0182,0.0188,0.0197,0.0207,0.024,0.0289,0.03,0.0322,0.0336,0.0364,0.0366,0.0429,0.043,0.0443,0.0453,0.0449,0,0,0,0.0166,0.0188,0.0196,0.0234,0.0239,0.0306,0.0299,0.0349,0.0376,0.0365,0.043,0.043,0.0443,0.0452,0.0448,0.0417,0,0,0,0.0185,0.019,0.0215,0.0225,0.0289,0.0295,0.0357,0.0385,0.0386,0.0409,0.0411,0.0445,0.0453,0.0448,0.0462,0,0,0,0,0.0217,0.0234,0.0257,0.0297,0.0339,0.0375,0.0404,0.0408,0.0431,0.0406,0.0456,0.0461,0.0457,0.0438,0.0434,0.0434,0.0434,0.0434,0.0434,0.0224,0.0258,0.0307,0.0352,0.0389,0.0435,0.0455,0.0465,0.0464,0.0471,0.0481,0.0502,0.0483,0.0489,0.0489,0.0489,0.0489,0.0489,0.0489,0.0263,0.0298,0.034,0.0396,0.0434,0.0483,0.0507,0.0505,0.0513,0.0506,0.0502,0.0466,0.0491,0.0491,0.0491,0.049,0.049,0.049,0.049,0.027,0.0292,0.033,0.0405,0.0467,0.0511,0.0549,0.0552,0.0532,0.0533,0.0501,0.0511,0.0499,0.0528,0.0528,0.0528,0.0528,0.0528,0.0528,0.0259,0.0299,0.0344,0.0419,0.047,0.053,0.0572,0.057,0.0554,0.0521,0.0538,0.0514,0.0513,0.0501,0.0528,0.0528,0.0528,0.0528,0.0528,0.0278,0.0286,0.0349,0.0399,0.0504,0.0544,0.0587,0.0566,0.0551,0.0515,0.0506,0.0507,0.0495,0.0494,0.0481,0.0503,0.0503,0.0503,0,0.0278,0.029,0.0361,0.0427,0.0497,0.0552,0.055,0.0547,0.051,0.0499,0.0536,0.0526,0.0526,0.0514,0.0513,0.0498,0,0,0,0.0296,0.0312,0.0355,0.0415,0.0494,0.0519,0.0547,0.0526,0.0526,0.0497,0.0495,0.0497,0.0531,0.053,0.0514,0.0513,0.0492,0,0]}]]